EUTELSAT 65 WEST A

Last updated on Tue Sep 22 2026 00:03:13 GMT+0000 (Coordinated Universal Time)

1 41382U 16014A 26264.45098941 -.00000280 00000+0 00000+0 0 9999 2 41382 0.0627 328.9910 0002251 207.2093 281.2946 1.00270167 38490
UTC large
Height (km)
Speed (km/s)
/
Latitude / Longitude
Inclination (degrees)
Orbital Period (minutes)
Azimuth
Elevation
Range (km)
Doppler Factor

Next 0 passes for location: London (51.5072 / 0.1276)

No passes found over London.
EUTELSAT 65 WEST A